Location: Jalan Sepang
(2.8072°N, 101.8021°E)
Time: 05:11:42
(UTC+00:00)

Cosmos 1420 Rocket - Pass Details

Date: 15 May 2026
Orbit: 750 x 776 km, 74.0° (Epoch: 7 June)

Event Time Altitude Azimuth Distance (km) Brightness Sun altitude
Rises 22:06:18 0° 347° (NNW) 3,213 7.3 -13.9°
Reaches altitude 10° 22:08:40 10° 346° (NNW) 2,285 6.5 -13.3°
Maximum altitude 22:13:51 86° 258° (WSW) 762 3.9 -12.1°
Drops below altitude 10° 22:19:01 10° 169° (S) 2,276 6.4 -10.9°
Sets 22:21:22 0° 169° (SSE) 3,199 7.1 -10.3°
